Dewpoint
42 43 41 39 38 38 37 37 39 41 41 39 40 41 41 42 42 40 39 38 39 40
41 41 38 37 37 38 39 37 39 39 39 39 39 39 41 40 38 38 38 38 38 40
36 37 38 38 39 39 39 38 37 40 40 40 40 40 38 38 38 37 36 37 36 37
38 38 38 37 37 38 38 39 38 38 40 39 39 39 38 37 37 36 34 34 34 33
38 37 35 35 35 36 36 38 36 34 33 37 38 37 37 36 32 28 26 26 26 26
33 35 32 34 35 36 35 34 32 30 28 29 29 28 27 27 27 25 25 25 25 24
32 34 33 34 34 34 33 31 27 27 28 29 27 26 26 25 25 25 25 26 25 24
33 35 34 34 34 34 31 28 26 26 27 27 26 23 24 24 24 24 24 25 23 23
35 34 35 34 33 33 27 24 25 25 26 26 23 28 27 26 24 24 24 23 22 23
36 37 37 37 35 28 24 24 24 25 27 27 25 28 27 27 25 24 23 22 22 20
36 37 37 36 33 27 25 23 24 26 27 26 25 30 31 30 26 25 24 23 23 21
35 35 36 34 33 32 27 26 27 29 28 27 27 30 31 30 26 26 25 25 23 22
36 36 35 34 33 33 28 28 29 28 28 29 26 29 29 27 24 21 23 23 22 23
35 36 36 35 32 28 26 28 26 25 26 26 27 25 26 26 24 23 23 21 21 22
Lifted_Index
7 7 7 7 8 8 8 8 8 8 7 7 7 7 7 7 7 7 7 6 6 5
7 8 8 8 8 8 8 8 8 7 7 7 7 6 6 6 6 6 5 5 4 4
8 8 8 8 7 7 7 7 7 7 6 6 5 5 5 5 5 4 4 4 4 4
9 9 8 7 7 7 7 7 6 6 5 5 4 4 4 4 4 4 4 4 4 5
9 9 8 7 7 7 7 6 5 5 4 4 4 4 4 4 5 5 5 5 5 6
9 8 8 7 7 7 6 6 5 4 4 5 5 5 5 5 5 5 6 6 6 6
8 8 8 7 7 6 6 5 4 4 5 5 5 5 5 5 5 6 6 6 6 7
7 7 7 6 5 4 4 4 4 4 4 5 5 5 5 5 6 6 7 7 7 7
6 6 4 3 3 3 3 4 4 4 4 4 5 5 5 6 6 7 7 7 7 7
5 4 3 2 2 2 3 3 3 3 4 4 5 5 6 6 7 7 7 8 8 8
4 4 3 2 2 2 3 3 3 3 4 4 5 5 6 7 7 7 8 8 8 9
4 3 2 2 1 1 2 3 3 4 4 5 5 6 7 7 7 8 8 8 8 8
3 3 2 2 1 2 3 3 4 4 4 5 6 7 7 8 8 9 9 9 9 9
3 3 2 2 2 2 3 4 4 4 5 5 7 7 8 8 9 9 9 9 9 9